[[{"header":{"parameterUnit":"m.s-1","parameterCategory":1,"la1":30.2991,"la2":30.254,"lo1":-89.0895,"lo2":-89.0444,"dy":0.0017,"dx":0.0017,"nx":28,"ny":28,"refTime":"2024-07-18T09:00:00:Z","depth":0,"parameterNumber":2,"parameterNumberName":"U-component_of_WINDS"},"data":[0,0,0,0,0,0,0,0,0,0,0,0,0,0,0,0,0,0,0,0,0,0,0,0,0,0,0,0,0,0,0,0,0,0,0,0,0,0,0,0,0,0,0,0,0,0,0,0,0,0,0,0,0,0,0,0,0,0,0.5604,0.5606,0,0.5755,0.5756,0.5758,0.5824,0.5824,0.5824,0.5824,0.598,0.5984,0.5989,0,0,0,0,0,0,0,0,0,0,0,0,0,0.5375,0.5378,0.5604,0.5606,0.5608,0.5754,0.5756,0.5758,0.5824,0.5824,0.5824,0.5823,0.5979,0.5984,0.5989,0,0,0,0,0,0,0,0,0,0,0,0,0,0.5495,0.538,0.5604,0.5658,0.5665,0.5754,0.5756,0.5759,0.5824,0.5824,0.5824,0.5823,0.5977,0.5983,0.599,0.6037,0,0,0.601,0.6013,0,0,0,0,0,0,0,0,0.5488,0.5503,0.5648,0.5655,0.5662,0.577,0.5733,0.5852,0.5824,0.5764,0.5824,0.5823,0.5911,0.5923,0.5952,0.6044,0.6051,0.601,0.6014,0.6017,0.6019,0,0,0,0,0,0,0,0.5479,0.5497,0.5664,0.565,0.5659,0.5675,0.5692,0.5756,0.5837,0.5769,0.5774,0.5791,0.5914,0.5945,0.5956,0.6053,0.601,0.6016,0.602,0.6023,0.6191,0.6191,0,0,0,0,0,0,0.5462,0.5489,0.5659,0.5668,0.5572,0.568,0.5699,0.5736,0.5837,0.5852,0.5791,0.5793,0.5934,0.5948,0.5962,0.6023,0.6017,0.6023,0.6027,0.619,0.6191,0.6191,0,0,0,0,0,0,0.5457,0.5476,0.5653,0.558,0.5604,0.5684,0.5726,0.5739,0.577,0.5853,0.5868,0.5808,0.5934,0.5952,0.6017,0.6029,0.6026,0.6032,0.6189,0.619,0.6191,0.6146,0,0,0,0,0,0,0.545,0.5474,0.5493,0.558,0.5608,0.5705,0.5726,0.5742,0.5781,0.5785,0.5873,0.5887,0.5936,0.6007,0.6024,0.6038,0.6037,0.6189,0.619,0.6191,0.6147,0.6145,0.6143,0,0,0,0,0,0.5441,0.5475,0.5493,0.5513,0.5632,0.5706,0.5722,0.5776,0.5781,0.5801,0.5854,0.5884,0.6025,0.6013,0.6032,0.6049,0.6188,0.619,0.6191,0.6147,0.6145,0.6144,0,0,0,0,0,0,0.5388,0.5487,0.5509,0.5571,0.563,0.5717,0.5743,0.5773,0.5831,0.5833,0.5899,0.5918,0.5977,0.602,0.6005,0.6099,0.6109,0.6114,0.607,0.6068,0.6067,0.6056,0.6043,0,0,0,0,0,0.5383,0.5434,0.5518,0.5565,0.5593,0.5663,0.5697,0.5734,0.5797,0.5822,0.5881,0.5941,0.5999,0.6036,0.6094,0.6153,0.6173,0.6173,0.6172,0.617,0.6174,0.6208,0.6209,0.6195,0.6195,0.6195,0,0,0.5374,0.5434,0.5463,0.5556,0.5605,0.5657,0.5683,0.5737,0.5776,0.5831,0.5895,0.594,0.6012,0.6073,0.6104,0.6111,0.6182,0.6172,0.617,0.6175,0.6209,0.621,0.6211,0.6196,0.6196,0.6196,0,0,0.5384,0.5435,0.5479,0.5528,0.5602,0.5648,0.5658,0.5741,0.5772,0.5838,0.5879,0.5927,0.6025,0.6075,0.6112,0.6139,0.6169,0.6156,0.6148,0.618,0.6181,0.6183,0.6192,0.6195,0.6159,0.6159,0.6159,0,0.5364,0.5443,0.5498,0.555,0.5589,0.5639,0.5685,0.5729,0.5819,0.5845,0.5851,0.5975,0.6027,0.6101,0.6107,0.6136,0.615,0.6147,0.6176,0.6178,0.618,0.619,0.6193,0.6157,0.6157,0.6158,0.6158,0,0.5414,0.5468,0.5495,0.5579,0.5621,0.5669,0.5732,0.5768,0.5801,0.5846,0.5911,0.5975,0.6046,0.6066,0.6099,0.6144,0.6146,0.6164,0.6175,0.6179,0.6189,0.6193,0.6154,0.6155,0.6156,0.6156,0,0,0.5396,0.5508,0.5517,0.5556,0.564,0.5683,0.5733,0.5802,0.5831,0.5891,0.5934,0.6015,0.6031,0.6074,0.6113,0.614,0.6157,0.6155,0.6157,0.6153,0.621,0.6197,0.62,0.6176,0.6177,0.6178,0.6204,0,0.5417,0.5509,0.556,0.563,0.568,0.5728,0.5771,0.5827,0.587,0.592,0.5967,0.6024,0.6041,0.6067,0.6096,0.6148,0.6169,0.6147,0.6218,0.622,0.6199,0.6206,0.6193,0.6214,0.6208,0.6209,0.621,0,0.5455,0.5513,0.5587,0.5665,0.5688,0.5726,0.5793,0.5839,0.5904,0.5933,0.5979,0.6017,0.6072,0.6078,0.6153,0.6137,0.6169,0.6199,0.6201,0.621,0.6216,0.6216,0.6222,0.6225,0.6217,0.6216,0.6216,0,0.5434,0.553,0.5587,0.5618,0.5711,0.5736,0.5776,0.584,0.5878,0.5936,0.5961,0.6024,0.606,0.6108,0.6162,0.6161,0.6232,0.6243,0.6258,0.6257,0.6272,0.6271,0.6284,0.6291,0.6291,0.6291,0.6291,0,0.5453,0.5497,0.5579,0.5614,0.5664,0.5722,0.5771,0.5814,0.587,0.5915,0.596,0.6001,0.6069,0.6118,0.6161,0.6217,0.6232,0.6258,0.6269,0.6254,0.6251,0.6276,0.6277,0.6292,0.6292,0.6292,0.6291,0,0.5439,0.5495,0.5561,0.5642,0.5663,0.5697,0.5767,0.5802,0.5847,0.5902,0.5919,0.5989,0.6049,0.6107,0.6188,0.6217,0.6272,0.6287,0.625,0.6256,0.6269,0.6267,0.63,0.6307,0.6308,0.6308,0.6308,0,0.5448,0.5483,0.5567,0.56,0.5638,0.569,0.5728,0.5786,0.5824,0.59,0.5926,0.5989,0.6043,0.6137,0.6195,0.6257,0.6273,0.628,0.6283,0.6267,0.6274,0.6271,0.6275,0.6279,0.6279,0.6279,0.6278,0,0.5457,0.5483,0.5536,0.5599,0.5643,0.5696,0.5749,0.5774,0.5842,0.5882,0.5943,0.5985,0.6066,0.6128,0.6197,0.6238,0.627,0.6277,0.6284,0.627,0.6247,0.626,0.6246,0.6276,0.6276,0.6277,0.6277,0.6277,0.5455,0.5488,0.5552,0.561,0.5656,0.5705,0.5743,0.5791,0.5843,0.5914,0.5945,0.6006,0.607,0.6164,0.6205,0.6254,0.6262,0.6272,0.6274,0.6276,0.6273,0.6238,0.6266,0.6267,0.6267,0.6267,0.6267,0,0.5467,0.5511,0.5563,0.5636,0.5681,0.5706,0.5767,0.5803,0.5856,0.5912,0.5963,0.6033,0.6093,0.6156,0.6219,0.6247,0.6263,0.6261,0.626,0.6269,0.6262,0.625,0.6247,0.6247,0.6247,0.6247,0.6247,0.6247,0.5479,0.5536,0.5569,0.5649,0.5692,0.5752,0.5785,0.583,0.5875,0.5951,0.6,0.604,0.6099,0.6167,0.6222,0.6239,0.6261,0.6255,0.6276,0.6269,0.627,0.6271,0.626,0.6259,0.6259,0.628,0.628,0.628]},{"header":{"parameterUnit":"m.s-1","parameterCategory":1,"la1":30.2991,"la2":30.254,"lo1":-89.0895,"lo2":-89.0444,"dy":0.0017,"dx":0.0017,"nx":28,"ny":28,"refTime":"2024-07-18T09:00:00:Z","depth":0,"parameterNumber":3,"parameterNumberName":"V-component_of_WINDS"},"data":[0,0,0,0,0,0,0,0,0,0,0,0,0,0,0,0,0,0,0,0,0,0,0,0,0,0,0,0,0,0,0,0,0,0,0,0,0,0,0,0,0,0,0,0,0,0,0,0,0,0,0,0,0,0,0,0,0,0,4.8186,4.8187,0,4.8211,4.8211,4.8212,4.8235,4.8235,4.8236,4.8236,4.8259,4.826,4.826,0,0,0,0,0,0,0,0,0,0,0,0,0,4.8156,4.8157,4.8186,4.8187,4.8187,4.8211,4.8211,4.8212,4.8235,4.8235,4.8236,4.8236,4.8259,4.826,4.826,0,0,0,0,0,0,0,0,0,0,0,0,0,4.8174,4.8157,4.8186,4.8202,4.8203,4.8211,4.8211,4.8212,4.8235,4.8235,4.8236,4.8236,4.8259,4.826,4.826,4.8254,0,0,4.8262,4.8262,0,0,0,0,0,0,0,0,4.8173,4.8175,4.8199,4.8201,4.8202,4.8221,4.8209,4.8226,4.8235,4.8223,4.8236,4.8237,4.8246,4.8248,4.8251,4.8255,4.8256,4.8262,4.8262,4.8262,4.8262,0,0,0,0,0,0,0,4.8172,4.8174,4.8196,4.8199,4.8201,4.8206,4.8209,4.8213,4.8231,4.8224,4.8226,4.8228,4.8247,4.8251,4.8252,4.8257,4.8262,4.8262,4.8262,4.8263,4.8256,4.8255,0,0,0,0,0,0,4.8168,4.8173,4.8195,4.8197,4.8189,4.8206,4.821,4.8214,4.8232,4.8235,4.8228,4.8229,4.825,4.8251,4.8253,4.8246,4.8262,4.8263,4.8263,4.8256,4.8256,4.8255,0,0,0,0,0,0,4.8168,4.817,4.8194,4.8185,4.8189,4.8206,4.8211,4.8214,4.8218,4.8235,4.8238,4.8229,4.825,4.8252,4.8254,4.8247,4.8263,4.8263,4.8257,4.8256,4.8256,4.8233,0,0,0,0,0,0,4.8167,4.817,4.8169,4.8185,4.8189,4.8195,4.8211,4.8215,4.8219,4.8221,4.8236,4.8239,4.825,4.8253,4.8254,4.8248,4.8264,4.8258,4.8257,4.8256,4.8235,4.8232,4.823,0,0,0,0,0,4.8166,4.8161,4.8168,4.8171,4.8188,4.8195,4.8197,4.8211,4.8219,4.8217,4.8227,4.8238,4.8248,4.8253,4.8254,4.8249,4.8258,4.8257,4.8256,4.8236,4.8233,4.823,0,0,0,0,0,0,4.8143,4.8164,4.8172,4.8173,4.8182,4.8199,4.8197,4.8208,4.8214,4.8216,4.8232,4.8236,4.8235,4.8242,4.8247,4.8243,4.8254,4.8254,4.8239,4.8236,4.8233,4.8231,4.8264,0,0,0,0,0,4.8138,4.8143,4.816,4.8159,4.8164,4.818,4.8183,4.8193,4.8203,4.8207,4.8218,4.8226,4.8231,4.8234,4.8239,4.8236,4.8239,4.8233,4.823,4.8228,4.8227,4.8225,4.8222,4.8252,4.8252,4.8252,0,0,4.8128,4.814,4.8142,4.8155,4.8163,4.8167,4.8183,4.8186,4.8189,4.8207,4.8209,4.8217,4.8228,4.8227,4.8227,4.8233,4.822,4.8227,4.8225,4.8225,4.8223,4.822,4.8218,4.8251,4.8251,4.8251,0,0,4.8111,4.8121,4.8121,4.8129,4.8141,4.8152,4.8152,4.8167,4.8173,4.8176,4.8189,4.8192,4.8201,4.8207,4.8212,4.8196,4.8206,4.8198,4.8184,4.8182,4.8179,4.8177,4.8171,4.8168,4.8197,4.8196,4.8196,0,4.8097,4.8103,4.8119,4.8122,4.8126,4.8144,4.8143,4.815,4.8163,4.8166,4.8173,4.8183,4.8191,4.8191,4.8187,4.8191,4.819,4.8196,4.8178,4.8176,4.8175,4.8169,4.8166,4.8195,4.8195,4.8196,4.8196,0,4.8084,4.8089,4.8087,4.81,4.8104,4.8105,4.812,4.8123,4.8132,4.8142,4.8143,4.8154,4.8161,4.8162,4.8171,4.8163,4.8166,4.8175,4.8187,4.8171,4.8165,4.8163,4.8194,4.8194,4.8194,4.8195,0,0,4.8054,4.8075,4.8074,4.808,4.8095,4.8098,4.8099,4.8106,4.8108,4.8116,4.8117,4.8123,4.8131,4.8136,4.8146,4.8144,4.813,4.8153,4.8154,4.8148,4.812,4.8113,4.811,4.8137,4.8136,4.8136,4.8119,0,4.8039,4.8043,4.8057,4.8055,4.8059,4.8075,4.8076,4.8084,4.8093,4.8096,4.8106,4.811,4.8121,4.8124,4.8122,4.8132,4.8124,4.8133,4.8136,4.8136,4.8132,4.8107,4.8099,4.8083,4.8117,4.8117,4.8117,0,4.8022,4.803,4.8029,4.8043,4.8045,4.8045,4.8053,4.8056,4.8066,4.8072,4.8077,4.8088,4.8089,4.81,4.8101,4.8106,4.8108,4.8113,4.8113,4.8113,4.8125,4.8106,4.8078,4.8075,4.8114,4.8114,4.8114,0,4.7999,4.8009,4.8009,4.8014,4.803,4.803,4.8036,4.8046,4.805,4.8056,4.8058,4.8065,4.8068,4.8072,4.8084,4.8091,4.8083,4.8095,4.8087,4.8087,4.8084,4.8084,4.8055,4.8087,4.8087,4.8087,4.8087,0,4.798,4.7979,4.7999,4.7999,4.7998,4.8013,4.8011,4.8019,4.8028,4.8029,4.8044,4.8044,4.8061,4.8063,4.8073,4.8071,4.8072,4.8077,4.8079,4.8075,4.8074,4.8076,4.8077,4.8086,4.8086,4.8086,4.8086,0,4.7954,4.7967,4.7969,4.7984,4.7988,4.7986,4.7998,4.7999,4.8008,4.8009,4.8011,4.8025,4.8028,4.8041,4.8048,4.8054,4.8049,4.8054,4.8046,4.8047,4.8038,4.8038,4.8009,4.8005,4.8039,4.8039,4.8039,0,4.7941,4.794,4.7955,4.7957,4.7963,4.7966,4.797,4.7985,4.7988,4.7998,4.7997,4.8001,4.8006,4.801,4.8021,4.8025,4.803,4.802,4.8031,4.8027,4.8029,4.8028,4.8028,4.8017,4.8016,4.8016,4.8016,0,4.7915,4.7922,4.7927,4.7934,4.7937,4.7943,4.795,4.7951,4.7967,4.797,4.7974,4.7977,4.7983,4.7987,4.7994,4.8,4.801,4.8012,4.801,4.8006,4.8,4.8002,4.8038,4.8013,4.8013,4.8013,4.8013,4.8013,4.7895,4.7894,4.7905,4.7909,4.7916,4.7922,4.7922,4.7932,4.7935,4.7942,4.795,4.7953,4.7961,4.7971,4.7976,4.7977,4.7983,4.7981,4.798,4.7979,4.7977,4.8001,4.7979,4.7979,4.7979,4.7979,4.7979,0,4.7869,4.7877,4.7881,4.789,4.7893,4.7903,4.7911,4.7912,4.7915,4.7922,4.7926,4.793,4.7933,4.7944,4.7949,4.7948,4.7952,4.7948,4.7948,4.7949,4.7972,4.7972,4.7944,4.7944,4.7944,4.7944,4.7944,4.7944,4.7856,4.7856,4.7864,4.7866,4.7873,4.7876,4.788,4.7885,4.789,4.7894,4.7897,4.7904,4.7913,4.7918,4.7921,4.7924,4.7925,4.7919,4.7923,4.7944,4.7947,4.7951,4.7951,4.7919,4.7919,4.79,4.79,4.79]}]]